Location: Blangy-Tronville
(49.8790°N, 2.4226°E)
Time: 07:05:02
(UTC+00:00)

CZ-4C R/B - Pass Details

Date: 18 November 2025
Orbit: 487 x 1493 km, 63.4° (Epoch: 13 December)

Event Time Altitude Azimuth Distance (km) Brightness Sun altitude
Rises 18:44:11 0° 295° (WNW) 3,159 6.2 -25.7°
Reaches altitude 10° 18:46:50 10° 311° (NW) 2,392 5.2 -26.1°
Maximum altitude 18:51:16 23° 3° (N) 1,880 3.9 -26.8°
Enters shadow 18:52:10 22° 16° (NNE) 1,958 3.9 -27.0°
